Tacoma, WA

3:12 AM PST on December 03, 2016 (GMT -0800)
McChord Air Force Base

Weather History for KTCM - July, 2012

Change the Weather History Date:

Sunday, July 8, 2012

  Actual Average Record
Temperature  
Mean Temperature 67 °F -  
Max Temperature 84 °F 71 °F 93 °F (2010)
Min Temperature 51 °F 50 °F 42 °F (1999)
Cooling Degree Days 2    
Growing Degree Days 17 (Base 50)    
Moisture  
Dew Point 54 °F    
Average Humidity 62    
Maximum Humidity 95    
Minimum Humidity 29    
Precipitation  
Precipitation 0.00 in - - ()
Sea Level Pressure  
Sea Level Pressure 30.05 in    
Wind  
Wind Speed 4 mph (NNW)    
Max Wind Speed 12 mph    
Max Gust Speed -    
Visibility 10 miles    
Events Rain    
Averages and records for this station are not official NWS values.
T = Trace of Precipitation, MM = Missing Value Source: NWS Daily Summary

Daily Weather History Graph

Daily Weather History Graph

Search for Another Location

Airport or City:

Trip Planner

Search our weather history database for the weather conditions in past years. The results will help you decide how hot, cold, wet, or windy it might be!

Date:

Astronomy

Jul. 08, 2012 Rise Set
Actual Time 5:23 AM PDT 9:06 PM PDT
Civil Twilight 4:44 AM PDT 9:44 PM PDT
Nautical Twilight 3:51 AM PDT 10:37 PM PDT
Astronomical Twilight 2:37 AM PDT 11:50 PM PDT
Moon 11:27 PM PDT (7/8) 11:22 AM PDT (7/8)
Length of Visible Light 17h 00m
Length of Day
15h 42m
Waning Gibbous, 72% of the Moon is Illuminated
Jul 8
Waning Gibbous
Jul 10
Last Quarter
Jul 18
New
Jul 26
First Quarter
Aug 1
Full

Hourly Weather History & Observations

Time (PDT) Temp. Heat Index Dew Point Humidity Pressure Visibility Wind Dir Wind Speed Gust Speed Precip Events Conditions
12:58 AM 56.8 °F - 51.1 °F 81% 30.07 in 10.0 mi SSW 1.2 mph - N/A   Clear
1:58 AM 56.3 °F - 51.1 °F 83% 30.06 in 10.0 mi Calm Calm - N/A   Clear
2:58 AM 54.1 °F - 50.4 °F 87% 30.07 in 10.0 mi SW 1.2 mph - N/A   Clear
3:58 AM 52.7 °F - 49.6 °F 89% 30.08 in 10.0 mi Calm Calm - N/A   Clear
4:58 AM 52.5 °F - 51.1 °F 95% 30.08 in 10.0 mi East 1.2 mph - N/A   Clear
5:58 AM 51.4 °F - 50.2 °F 95% 30.08 in 10.0 mi SSE 2.3 mph - N/A   Clear
6:58 AM 56.1 °F - 53.1 °F 89% 30.09 in 10.0 mi North - - N/A   Clear
7:58 AM 61.9 °F - 52.9 °F 72% 30.09 in 10.0 mi NNW 2.3 mph - N/A   Clear
8:58 AM 65.5 °F - 54.3 °F 67% 30.10 in 10.0 mi Calm Calm - N/A   Clear
9:58 AM 69.6 °F - 54.7 °F 59% 30.09 in 10.0 mi Variable 3.5 mph - N/A   Clear
10:58 AM 72.9 °F - 53.6 °F 51% 30.08 in 10.0 mi Variable 4.6 mph - N/A   Clear
11:58 AM 75.9 °F - 53.6 °F 46% 30.07 in 10.0 mi NNE 5.8 mph - N/A   Clear
12:58 PM 77.7 °F - 54.5 °F 45% 30.06 in 10.0 mi North 9.2 mph - N/A   Clear
1:58 PM 79.3 °F - 54.1 °F 42% 30.04 in 10.0 mi North 11.5 mph - N/A   Clear
2:58 PM 81.0 °F 80.5 °F 53.8 °F 39% 30.03 in 10.0 mi NNE 11.5 mph - N/A   Clear
3:58 PM 82.8 °F - 52.2 °F 35% 30.01 in 10.0 mi North 8.1 mph - N/A   Clear
4:58 PM 83.7 °F - 47.8 °F 29% 30.00 in 10.0 mi North 10.4 mph - N/A   Clear
5:58 PM 82.2 °F - 48.4 °F 31% 29.99 in 10.0 mi NNE 5.8 mph - N/A   Scattered Clouds
6:58 PM 81.1 °F 80.9 °F 55.0 °F 41% 29.99 in 10.0 mi NE 8.1 mph - N/A   Partly Cloudy
7:58 PM 78.4 °F - 57.4 °F 48% 30.00 in 10.0 mi North 8.1 mph - N/A   Scattered Clouds
8:58 PM 75.2 °F - 56.8 °F 53% 30.01 in 10.0 mi North 5.8 mph - N/A   Mostly Cloudy
9:35 PM 73.4 °F - 59.0 °F 61% 30.00 in 10.0 mi WNW 6.9 mph - N/A Rain Light Rain
9:44 PM 73.4 °F - 59.0 °F 61% 30.01 in 10.0 mi WNW 5.8 mph - N/A   Partly Cloudy
9:58 PM 72.7 °F - 59.5 °F 63% 30.02 in 10.0 mi West 6.9 mph - 0.00 in   Partly Cloudy
10:58 PM 70.0 °F - 58.5 °F 67% 30.02 in 10.0 mi WNW 8.1 mph - N/A   Clear
11:58 PM 66.2 °F - 56.5 °F 71% 30.06 in 10.0 mi West 6.9 mph - N/A   Scattered Clouds